Location: Waco, TX
(31.5480°N, 97.1670°W)
Time: 18:58:56
(UTC-05:00)

ISS - Pass Details

Date: 13 August 2018
Orbit: 401 x 409 km, 51.6° (Epoch: 19 August)

Event Time Altitude Azimuth Distance (km) Brightness Sun altitude
Rises 11:42:06 0° 215° (SW) 2,297 0.0 59.4°
Reaches altitude 10° 11:44:12 10° 210° (SSW) 1,442 -0.9 59.8°
Maximum altitude 11:47:21 53° 133° (SE) 498 -1.0 60.4°
Drops below altitude 10° 11:50:31 10° 54° (NE) 1,449 -0.7 61.0°
Sets 11:52:38 0° 50° (NE) 2,310 0.1 61.3°
